Flag for U.S.A. Weather past 2 weeks in Baton Rouge, Louisiana, U.S.A.

Now
91 °F

Partly sunny.


Feels Like: 98 °F
Forecast: 72 / 88 °F
Wind: N/A

Location: Baton Rouge Metropolitan - Ryan Field

Current Time: Jul 23, 2014 at 3:51:49 PM

Latest Report: Jul 23, 2014 at 2:53 PM


Visibility: 10 mi

Pressure: 30.00 "Hg

Humidity: 52%

Dew point: 71 °F

Location of Baton RougeLocation

Historic Weather in Baton Rouge — Graph

°F

Baton Rouge temperature yesterday

Maximum temperature yesterday: 86 °F (at 10:53 AM)
Minimum temperature yesterday: 71 °F (at 5:53 AM)
Average temperature yesterday: 76 °F

Past Weeks' High & Low Weather Summary

 TemperatureHumidityPressure
High93 °F (Jul 11, 3:53 PM)97% (Jul 9, 2:53 AM)30.16 "Hg (Jul 9, 2:53 AM)
Low62 °F (Jul 17, 6:53 AM)42% (Jul 16, 4:53 PM)29.90 "Hg (Jul 18, 6:53 PM)
Average79 °F80%30.02 "Hg
* Reported Jul 8 2:53 PM — Jul 23 2:53 PM, Baton Rouge, Weather by CustomWeather, © 2014

Note: Actual official high and low records may vary slightly from our data, if they occured in-between our weather recording intervals... More about our weather records

Advertising

Baton Rouge weather history for previous 24 hours

 ConditionsComfort  
Time TempWeatherWind HumidityBarometerVisibility
2:53 PM
Jul 23
91 °FPartly sunny.N/A52%30.00 "Hg10 mi
2:00 PM89 °FPartly sunny.6 mph57%30.03 "Hg10 mi
12:53 PM87 °FPartly sunny.3 mph61%30.04 "Hg10 mi
11:53 AM85 °FPartly sunny.6 mph68%30.05 "Hg10 mi
10:53 AM84 °FScattered clouds.7 mph70%30.06 "Hg10 mi
9:53 AM80 °FSunny.6 mph76%30.05 "Hg10 mi
8:53 AM78 °FSunny.5 mph76%30.06 "Hg10 mi
7:53 AM73 °FSunny.6 mph88%30.05 "Hg10 mi
4:53 AM71 °FClear.No wind93%30.02 "Hg7 mi
3:53 AM71 °FFog.5 mph93%30.01 "Hg6 mi
12:53 AM73 °FClear.7 mph94%30.02 "Hg10 mi
11:53 PM
Jul 22
75 °FClear.7 mph90%30.03 "Hg10 mi
10:53 PM75 °FClear.6 mph90%30.03 "Hg9 mi
9:53 PM74 °FClear.No wind91%30.02 "Hg10 mi
8:53 PM75 °FSunny.No wind88%30.02 "Hg10 mi
7:53 PM76 °FScattered clouds.3 mph91%30.00 "Hg9 mi
6:53 PM81 °FThunderstorms. Scattered clouds.17 mph72%30.01 "Hg10 mi
Weather by CustomWeather, © 2014

See weather overviewHow to use our weather pages